Tracking 31032 objects as of 14-Jul-2025
HD Live streaming from Space Station
objects crossing your sky now

NOAA 17 DEB

Track NOAA 17 DEB now!
10-day predictions


NORAD ID: 49487
Int'l Code: 2002-032DR
Perigee: 678.2 km
Apogee: 717.3 km
Inclination: 98.8 °
Period: 98.6 minutes
Semi major axis: 7068 km
RCS: Unknown
Launch date: June 24, 2002
Source: United States (US)
Launch site: AIR FORCE WESTERN TEST RANGE (AFWTR)

Note: This is SATELLITE DEBRIS
Your satellite tracking list
Your tracking list is empty




NASA's NSSDC Master Catalog

Two Line Element Set (TLE):
1 49487U 02032DR  25194.75238946  .00007798  00000-0  15984-2 0  9994
2 49487  98.8342 204.1390 0027618 264.5419  95.2628 14.60787292227203
Source of the keplerian elements: AFSPC